Location: Hains Lake
(37.8540°N, 99.8578°W)
Time: 22:45:36
(UTC+00:00)

Vanguard 2 Rocket - Pass Details

Date: 20 April 2021
Orbit: 553 x 3326 km, 32.9° (Epoch: 05 May)

Event Time Altitude Azimuth Distance (km) Brightness Sun altitude
Rises 16:23:15 0° 185° (S) 5,478 11.1 50.2°
Reaches altitude 10° 16:28:10 10° 169° (SSE) 4,954 11.2 51.0°
Maximum altitude 16:37:33 19° 130° (SE) 4,917 11.7 52.5°
Drops below altitude 10° 16:48:54 10° 93° (E) 6,186 11.7 54.3°
Sets 16:56:08 0° 79° (E) 7,317 11.8 55.3°
